Torna al catalogo

STARLINK-35018

AttivoComunicazioniSSO
NORAD 65288·PAYLOAD·🇺🇸 United States

Lanciato Aug 22, 2025 da Vandenberg Space Force Base

Loading…

Prossimi Passaggi (prossime 24 ore)

TLE

AggiornatoSource: CelesTrak SupGP

Epoca: Sep 14, 2026, 21:21 UTC

1 65288C 25184R   26257.89006944 -.00030477  00000+0 -94638-3 0  2573
2 65288  97.2835 305.9153 0001105  89.1197 243.8305 15.33444305    11

Traccia STARLINK-35018 in tempo reale con AllMySat

Download on the App Store